• In Uzbekistan
  • List of Countries
  • For 7 days
  • Water Temperature
  • Satellite Maps
  • Weather Map
  • Weather Widgets
  • user-avatar
    Login

    Hourly Weather Idzhewan

    Today, 24 July, Monday

    Time Temperature Precipitation Wind Pressure Humidity
    00:00 +21°C° 0 mm 2 mps 691 mmHg 78%
    01:00 +20°C° 0 mm 2 mps 691 mmHg 80%
    02:00 +20°C° 0 mm 2 mps 691 mmHg 81%
    03:00 +20°C° 0 mm 2 mps 690 mmHg 85%
    04:00 +21°C° 0 mm 2 mps 690 mmHg 84%
    05:00 +21°C° 0 mm 2 mps 690 mmHg 83%
    06:00 +21°C° 0 mm 2 mps 691 mmHg 82%
    07:00 +23°C° 0 mm 2 mps 691 mmHg 75%
    08:00 +25°C° 0 mm 2 mps 691 mmHg 68%
    09:00 +26°C° 0 mm 2 mps 691 mmHg 61%
    10:00 +27°C° 0 mm 2 mps 691 mmHg 57%
    11:00 +28°C° 0 mm 3 mps 690 mmHg 53%
    12:00 +30°C° 0 mm 3 mps 690 mmHg 49%
    13:00 +30°C° 0 mm 4 mps 690 mmHg 48%
    14:00 +32°C° 0 mm 4 mps 690 mmHg 47%
    15:00 +33°C° 0 mm 4 mps 690 mmHg 45%
    16:00 +32°C° 0.1 mm 4 mps 690 mmHg 49%
    17:00 +30°C° 0.1 mm 4 mps 690 mmHg 52%
    18:00 +30°C° 0.1 mm 3 mps 690 mmHg 55%
    19:00 +28°C° 1.2 mm 3 mps 690 mmHg 62%
    20:00 +25°C° 1.2 mm 2 mps 690 mmHg 69%
    21:00 +23°C° 1.2 mm 1 mps 690 mmHg 76%
    22:00 +23°C° 1.3 mm 1 mps 690 mmHg 78%
    23:00 +22°C° 1.3 mm 1 mps 690 mmHg 80%

    Tomorrow, 25 July, Tuesday

    Time Temperature Precipitation Wind Pressure Humidity
    00:00 +21°C° 1.3 mm 1 mps 690 mmHg 82%
    01:00 +21°C° 0.4 mm 1 mps 690 mmHg 83%
    02:00 +21°C° 0.4 mm 1 mps 690 mmHg 84%
    03:00 +21°C° 0.4 mm 1 mps 690 mmHg 85%
    04:00 +21°C° 0.1 mm 1 mps 690 mmHg 84%
    05:00 +21°C° 0.1 mm 1 mps 690 mmHg 84%
    06:00 +21°C° 0.1 mm 1 mps 690 mmHg 83%
    07:00 +23°C° 0.1 mm 1 mps 690 mmHg 77%
    08:00 +24°C° 0.1 mm 1 mps 690 mmHg 72%
    09:00 +25°C° 0.1 mm 2 mps 690 mmHg 66%
    10:00 +26°C° 0.5 mm 2 mps 690 mmHg 61%
    11:00 +28°C° 0.5 mm 2 mps 689 mmHg 56%
    12:00 +29°C° 0.5 mm 2 mps 689 mmHg 51%
    13:00 +30°C° 0.7 mm 3 mps 689 mmHg 49%
    14:00 +31°C° 0.7 mm 3 mps 689 mmHg 47%
    15:00 +31°C° 0.7 mm 3 mps 688 mmHg 45%
    16:00 +31°C° 0.3 mm 3 mps 688 mmHg 48%
    17:00 +30°C° 0.3 mm 3 mps 688 mmHg 50%
    18:00 +30°C° 0.3 mm 3 mps 688 mmHg 53%
    19:00 +28°C° 1.1 mm 2 mps 688 mmHg 59%
    20:00 +26°C° 1.1 mm 2 mps 689 mmHg 65%
    21:00 +24°C° 1.1 mm 1 mps 689 mmHg 71%
    22:00 +23°C° 0.6 mm 1 mps 689 mmHg 72%
    23:00 +23°C° 0.6 mm 1 mps 689 mmHg 73%

    Day after tomorrow, 26 July, Wednesday

    Time Temperature Precipitation Wind Pressure Humidity
    00:00 +22°C° 0.6 mm 1 mps 689 mmHg 74%
    01:00 +22°C° 0.5 mm 1 mps 689 mmHg 75%
    02:00 +21°C° 0.5 mm 1 mps 689 mmHg 77%
    03:00 +21°C° 0.5 mm 1 mps 689 mmHg 78%
    04:00 +21°C° 0.1 mm 1 mps 689 mmHg 78%
    05:00 +21°C° 0.1 mm 1 mps 689 mmHg 77%
    06:00 +22°C° 0.1 mm 1 mps 689 mmHg 77%
    07:00 +24°C° 0 mm 1 mps 690 mmHg 69%
    08:00 +26°C° 0 mm 1 mps 690 mmHg 60%
    09:00 +28°C° 0 mm 1 mps 690 mmHg 52%
    10:00 +29°C° 0 mm 2 mps 690 mmHg 48%
    11:00 +30°C° 0 mm 2 mps 690 mmHg 44%
    12:00 +32°C° 0 mm 2 mps 690 mmHg 41%
    13:00 +32°C° 0 mm 2 mps 690 mmHg 40%
    14:00 +34°C° 0 mm 3 mps 689 mmHg 39%
    15:00 +34°C° 0 mm 3 mps 689 mmHg 38%
    16:00 +34°C° 0.1 mm 3 mps 689 mmHg 42%
    17:00 +33°C° 0.1 mm 3 mps 689 mmHg 46%
    18:00 +31°C° 0.1 mm 3 mps 689 mmHg 51%
    19:00 +29°C° 0.2 mm 2 mps 690 mmHg 56%
    20:00 +27°C° 0.2 mm 2 mps 690 mmHg 62%
    21:00 +25°C° 0.2 mm 1 mps 690 mmHg 68%
    22:00 +24°C° 0.2 mm 1 mps 690 mmHg 69%
    23:00 +23°C° 0.2 mm 1 mps 691 mmHg 70%

    27 July, Thursday

    Time Temperature Precipitation Wind Pressure Humidity
    00:00 +22°C° 0.2 mm 1 mps 691 mmHg 72%
    01:00 +22°C° 0.1 mm 1 mps 691 mmHg 73%
    02:00 +22°C° 0.1 mm 1 mps 691 mmHg 74%
    03:00 +21°C° 0.1 mm 1 mps 691 mmHg 75%
    04:00 +22°C° 0 mm 1 mps 691 mmHg 74%
    05:00 +22°C° 0 mm 1 mps 691 mmHg 73%
    06:00 +22°C° 0 mm 1 mps 692 mmHg 72%
    07:00 +24°C° 0 mm 1 mps 692 mmHg 64%
    08:00 +27°C° 0 mm 1 mps 692 mmHg 56%
    09:00 +29°C° 0 mm 1 mps 692 mmHg 48%
    10:00 +30°C° 0 mm 2 mps 692 mmHg 45%
    11:00 +32°C° 0 mm 2 mps 692 mmHg 41%
    12:00 +34°C° 0 mm 2 mps 692 mmHg 38%
    13:00 +35°C° 0 mm 2 mps 691 mmHg 38%
    14:00 +35°C° 0 mm 3 mps 691 mmHg 37%
    15:00 +36°C° 0 mm 3 mps 691 mmHg 36%
    16:00 +35°C° 0 mm 3 mps 691 mmHg 40%
    17:00 +34°C° 0 mm 3 mps 691 mmHg 43%
    18:00 +32°C° 0 mm 2 mps 691 mmHg 46%
    19:00 +30°C° 0 mm 2 mps 691 mmHg 51%
    20:00 +28°C° 0 mm 2 mps 691 mmHg 55%
    21:00 +26°C° 0 mm 2 mps 692 mmHg 60%
    22:00 +25°C° 0 mm 2 mps 692 mmHg 61%
    23:00 +25°C° 0 mm 2 mps 692 mmHg 62%

    28 July, Friday

    Time Temperature Precipitation Wind Pressure Humidity
    00:00 +24°C° 0 mm 2 mps 692 mmHg 63%
    01:00 +24°C° 0 mm 2 mps 692 mmHg 64%
    02:00 +23°C° 0 mm 1 mps 692 mmHg 65%
    03:00 +23°C° 0 mm 1 mps 692 mmHg 66%
    04:00 +23°C° 0 mm 1 mps 692 mmHg 65%
    05:00 +24°C° 0 mm 1 mps 692 mmHg 64%
    06:00 +24°C° 0 mm 1 mps 692 mmHg 63%
    07:00 +26°C° 0 mm 1 mps 692 mmHg 55%
    08:00 +29°C° 0 mm 1 mps 692 mmHg 47%
    09:00 +31°C° 0 mm 1 mps 692 mmHg 39%
    10:00 +34°C° 0 mm 2 mps 692 mmHg 36%
    11:00 +35°C° 0 mm 2 mps 692 mmHg 33%
    12:00 +37°C° 0 mm 2 mps 692 mmHg 30%
    13:00 +37°C° 0 mm 2 mps 692 mmHg 30%
    14:00 +38°C° 0 mm 3 mps 691 mmHg 29%
    15:00 +38°C° 0 mm 3 mps 691 mmHg 28%
    16:00 +37°C° 0 mm 3 mps 691 mmHg 32%
    17:00 +36°C° 0 mm 2 mps 691 mmHg 36%
    18:00 +35°C° 0 mm 2 mps 691 mmHg 40%
    19:00 +32°C° 0 mm 2 mps 691 mmHg 45%
    20:00 +30°C° 0 mm 2 mps 691 mmHg 50%
    21:00 +28°C° 0 mm 2 mps 692 mmHg 54%
    22:00 +27°C° 0 mm 2 mps 692 mmHg 56%
    23:00 +26°C° 0 mm 2 mps 692 mmHg 57%

    29 July, Saturday

    Time Temperature Precipitation Wind Pressure Humidity
    00:00 +26°C° 0 mm 2 mps 692 mmHg 58%
    01:00 +25°C° 0 mm 2 mps 692 mmHg 58%
    02:00 +25°C° 0 mm 1 mps 692 mmHg 58%
    03:00 +25°C° 0 mm 1 mps 692 mmHg 58%
    04:00 +25°C° 0 mm 2 mps 692 mmHg 57%
    05:00 +25°C° 0 mm 2 mps 693 mmHg 56%
    06:00 +26°C° 0 mm 2 mps 693 mmHg 54%
    07:00 +28°C° 0 mm 2 mps 693 mmHg 47%
    08:00 +31°C° 0 mm 1 mps 693 mmHg 39%
    09:00 +34°C° 0 mm 1 mps 693 mmHg 32%
    10:00 +35°C° 0 mm 1 mps 693 mmHg 29%
    11:00 +38°C° 0 mm 2 mps 693 mmHg 27%
    12:00 +39°C° 0 mm 2 mps 693 mmHg 24%
    13:00 +39°C° 0 mm 2 mps 693 mmHg 24%
    14:00 +40°C° 0 mm 2 mps 693 mmHg 23%
    15:00 +40°C° 0 mm 2 mps 692 mmHg 23%
    16:00 +39°C° 0 mm 2 mps 692 mmHg 27%
    17:00 +38°C° 0 mm 2 mps 692 mmHg 31%
    18:00 +37°C° 0 mm 2 mps 692 mmHg 35%
    19:00 +35°C° 0 mm 2 mps 692 mmHg 38%
    20:00 +32°C° 0 mm 2 mps 692 mmHg 41%
    21:00 +30°C° 0 mm 1 mps 693 mmHg 44%
    22:00 +29°C° 0 mm 1 mps 693 mmHg 44%
    23:00 +29°C° 0 mm 1 mps 693 mmHg 45%
    Show more